Location: Capannuccia
(43.7000°N, 11.3000°E)
Time: 19:02:48
(UTC+00:00)

STARLINK-1290 - Pass Details

Date: 07 June 2020
Orbit: 548 x 551 km, 53.0° (Epoch: 02 July)

Event Time Altitude Azimuth Distance (km) Brightness Sun altitude
Exits shadow 00:51:15 23° 274° (W) 1,187 5.1 -19.9°
Maximum altitude 00:53:25 44° 334° (NNW) 769 4.6 -19.7°
Drops below altitude 10° 00:57:23 10° 48° (NE) 1,818 7.3 -19.4°
Sets 00:59:42 0° 55° (NE) 2,712 8.2 -19.2°
